Date String (YYYY-MM-DD hh:mm:ss) UTC,Instrument flags,absolute air pressure of the measurement (hPa),sample flow rate (lpm),inlet stack bypass flow (lpm),air temperature of the measurement (°C),ambient temperature measured by the external sensor (°C),aerosol sample conditioner tube jacket temperature (°C),OPC LED temperature (°C),internal box temperature (°C),relative humidity of the measurement (%),span deviation,mass concentration of particles derived from Lorenz-Mie calculation of OPC scattering (μg/m³),mass concentration of particles derived from Lorenz-Mie calculation of OPC scattering (μg/m³),mass concentration of particles derived from Lorenz-Mie calculation of OPC scattering (μg/m³)
DateTimeUTC,F1_M11,P_M11,Q1_M11,Q2_M11,T1_M11,T2_M11,T3_M11,T4_M11,T5_M11,U1_M11,ZSPAN_M11,X0_M11,X2_M11,X1_M11
2023-11-16 06:00:00,SystemResetWarning,0826.1,5.00,000.00,027.0,025.9,000.0,035.4,028.3,7.9,0000.0,0011.98,0005.16,0004.27
2023-11-16 06:01:00,SystemResetWarning,0825.9,5.00,000.00,027.0,025.9,000.0,035.4,028.4,7.8,0000.0,0012.72,0005.39,0004.43
2023-11-16 06:02:00,SystemResetWarning,0825.9,5.00,000.00,027.0,025.9,000.0,035.4,028.4,7.9,0000.0,0014.98,0005.61,0004.55
2023-11-16 06:03:00,SystemResetWarning,0826.0,5.00,000.00,027.0,025.9,000.0,035.4,028.4,8.1,0000.0,0016.96,0005.72,0004.60
2023-11-16 06:04:00,SystemResetWarning,0826.2,5.01,000.00,026.9,025.9,000.0,035.4,028.3,8.0,0000.0,0017.38,0005.66,0004.59
2023-11-16 06:05:00,SystemResetWarning,0826.3,5.00,000.00,026.9,025.8,000.0,035.4,028.3,7.8,0000.0,0017.79,0005.69,0004.60
2023-11-16 06:06:00,SystemResetWarning,0826.4,5.00,000.00,026.9,025.7,000.0,035.4,028.2,7.8,0000.0,0017.52,0005.76,0004.66
2023-11-16 06:07:00,SystemResetWarning,0826.4,5.00,000.00,026.9,025.7,000.0,035.3,028.2,7.7,0000.0,0017.62,0005.89,0004.74
2023-11-16 06:08:00,SystemResetWarning,0826.3,5.00,000.00,026.9,025.7,000.0,035.3,028.3,7.9,0000.0,0019.15,0006.14,0004.89
2023-11-16 06:09:00,SystemResetWarning,0826.2,5.00,000.00,026.9,025.8,000.0,035.3,028.3,8.3,0000.0,0020.37,0006.22,0004.94
2023-11-16 06:10:00,SystemResetWarning,0826.1,5.01,000.00,026.9,025.8,000.0,035.3,028.4,8.2,0000.0,0020.99,0006.04,0004.81
2023-11-16 06:11:00,SystemResetWarning,0826.0,5.01,000.00,026.9,025.8,000.0,035.3,028.4,8.1,0000.0,0020.31,0005.72,0004.58
2023-11-16 06:12:00,SystemResetWarning,0826.0,5.01,000.00,026.9,025.8,000.0,035.3,028.4,8.0,0000.0,0019.74,0005.45,0004.37
2023-11-16 06:13:00,SystemResetWarning,0826.0,5.00,000.00,026.9,025.9,000.0,035.3,028.3,8.0,0000.0,0017.12,0005.21,0004.23
2023-11-16 06:14:00,SystemResetWarning,0826.0,5.00,000.00,026.9,025.9,000.0,035.3,028.3,7.9,0000.0,0016.42,0005.19,0004.23
2023-11-16 06:15:00,SystemResetWarning,0826.0,4.99,000.00,026.9,025.9,000.0,035.3,028.3,8.0,0000.0,0016.22,0005.38,0004.37
2023-11-16 06:16:00,SystemResetWarning,0826.2,4.99,000.00,026.9,025.9,000.0,035.3,028.3,8.0,0000.0,0016.47,0005.75,0004.63
2023-11-16 06:17:00,SystemResetWarning,0826.2,5.00,000.00,026.9,025.9,000.0,035.3,028.3,8.0,0000.0,0017.32,0006.07,0004.88
2023-11-16 06:18:00,SystemResetWarning,0826.2,5.00,000.00,026.9,025.8,000.0,035.3,028.3,7.9,0000.0,0018.55,0006.30,0005.04
2023-11-16 06:19:00,SystemResetWarning,0826.2,5.00,000.00,026.9,025.8,000.0,035.3,028.3,7.8,0000.0,0018.02,0006.37,0005.11
2023-11-16 06:20:00,SystemResetWarning,0826.0,5.00,000.00,026.9,025.8,000.0,035.3,028.3,7.8,0000.0,0016.56,0006.24,0005.05
2023-11-16 06:21:00,SystemResetWarning,0826.0,5.00,000.00,026.9,025.8,000.0,035.3,028.3,7.8,0000.0,0016.59,0006.27,0005.04
2023-11-16 06:22:00,SystemResetWarning,0826.0,5.00,000.00,026.9,025.8,000.0,035.3,028.3,7.8,0000.0,0017.81,0006.39,0005.13
2023-11-16 06:23:00,SystemResetWarning,0826.0,5.00,000.00,026.9,025.8,000.0,035.3,028.3,7.8,0000.0,0018.09,0006.48,0005.17
2023-11-16 06:24:00,SystemResetWarning,0826.2,5.00,000.00,026.9,025.8,000.0,035.3,028.2,7.8,0000.0,0018.95,0006.48,0005.17
2023-11-16 06:25:00,SystemResetWarning,0826.2,5.01,000.00,026.9,025.7,000.0,035.3,028.2,7.8,0000.0,0018.25,0006.33,0005.07
2023-11-16 06:26:00,SystemResetWarning,0826.2,5.00,000.00,026.9,025.7,000.0,035.3,028.2,7.8,0000.0,0017.72,0006.09,0004.87
2023-11-16 06:27:00,SystemResetWarning,0826.2,5.00,000.00,026.9,025.6,000.0,035.3,028.2,7.8,0000.0,0016.94,0005.75,0004.62
2023-11-16 06:28:00,SystemResetWarning,0826.2,5.00,000.00,026.8,025.6,000.0,035.3,028.2,7.8,0000.0,0016.22,0005.37,0004.36
2023-11-16 06:29:00,SystemResetWarning,0826.3,5.00,000.00,026.8,025.7,000.0,035.3,028.3,7.9,0000.0,0015.46,0005.12,0004.17
2023-11-16 06:30:00,SystemResetWarning,0826.2,5.00,000.00,026.8,025.7,000.0,035.3,028.3,8.0,0000.0,0014.61,0004.83,0003.97
2023-11-16 06:31:00,SystemResetWarning,0826.2,5.00,000.00,026.9,025.7,000.0,035.3,028.3,7.9,0000.0,0014.88,0004.66,0003.81
2023-11-16 06:32:00,SystemResetWarning,0826.1,4.99,000.00,026.9,025.7,000.0,035.3,028.3,7.8,0000.0,0015.64,0004.57,0003.72
2023-11-16 06:33:00,SystemResetWarning,0826.1,4.99,000.00,026.8,025.7,000.0,035.3,028.2,7.8,0000.0,0014.99,0004.53,0003.68
2023-11-16 06:34:00,SystemResetWarning,0826.0,5.01,000.00,026.8,025.7,000.0,035.3,028.2,7.8,0000.0,0015.95,0004.47,0003.64
2023-11-16 06:35:00,SystemResetWarning,0826.0,5.01,000.00,026.8,025.7,000.0,035.2,028.2,7.7,0000.0,0015.31,0004.38,0003.57
2023-11-16 06:36:00,SystemResetWarning,0826.0,4.99,000.00,026.8,025.6,000.0,035.2,028.2,7.6,0000.0,0014.76,0004.31,0003.50
2023-11-16 06:37:00,SystemResetWarning,0826.0,4.99,000.00,026.8,025.7,000.0,035.2,028.2,7.6,0000.0,0014.07,0004.27,0003.49
2023-11-16 06:38:00,SystemResetWarning,0825.9,4.99,000.00,026.8,025.6,000.0,035.2,028.2,7.7,0000.0,0014.53,0004.28,0003.52
2023-11-16 06:39:00,SystemResetWarning,0825.9,5.00,000.00,026.8,025.6,000.0,035.2,028.2,7.7,0000.0,0015.52,0004.27,0003.50
2023-11-16 06:40:00,SystemResetWarning,0825.9,5.00,000.00,026.8,025.6,000.0,035.2,028.1,7.6,0000.0,0015.37,0004.18,0003.43
2023-11-16 06:41:00,SystemResetWarning,0825.8,5.00,000.00,026.8,025.6,000.0,035.2,028.1,7.6,0000.0,0015.33,0004.14,0003.38
2023-11-16 06:42:00,SystemResetWarning,0825.8,5.01,000.00,026.8,025.6,000.0,035.2,028.1,8.0,0000.0,0015.47,0004.05,0003.32
2023-11-16 06:43:00,SystemResetWarning,0825.7,5.00,000.00,026.8,025.6,000.0,035.2,028.1,8.0,0000.0,0013.64,0003.94,0003.26
2023-11-16 06:44:00,SystemResetWarning,0825.7,5.00,000.00,026.8,025.7,000.0,035.2,028.2,8.0,0000.0,0012.73,0003.82,0003.17
2023-11-16 06:45:00,SystemResetWarning,0825.7,5.00,000.00,026.8,025.7,000.0,035.2,028.2,8.0,0000.0,0011.22,0003.73,0003.12
2023-11-16 06:46:00,SystemResetWarning,0825.8,5.00,000.00,026.8,025.7,000.0,035.2,028.2,8.0,0000.0,0010.90,0003.75,0003.12
2023-11-16 06:47:00,SystemResetWarning,0825.9,5.00,000.00,026.8,025.7,000.0,035.2,028.2,7.9,0000.0,0011.02,0003.83,0003.18
2023-11-16 06:48:00,SystemResetWarning,0825.9,4.99,000.00,026.8,025.7,000.0,035.2,028.2,7.8,0000.0,0011.64,0003.97,0003.32
2023-11-16 06:49:00,SystemResetWarning,0825.9,4.99,000.00,026.8,025.7,000.0,035.2,028.1,7.6,0000.0,0012.07,0004.17,0003.45
2023-11-16 06:50:00,SystemResetWarning,0825.9,5.01,000.00,026.8,025.6,000.0,035.2,028.1,7.8,0000.0,0012.25,0004.45,0003.64
2023-11-16 06:51:00,SystemResetWarning,0825.9,5.00,000.00,026.8,025.6,000.0,035.2,028.1,8.0,0000.0,0013.19,0004.74,0003.86
2023-11-16 06:52:00,SystemResetWarning,0825.8,5.00,000.00,026.8,025.6,000.0,035.2,028.1,8.1,0000.0,0014.33,0005.01,0004.06
2023-11-16 06:53:00,SystemResetWarning,0825.7,5.00,000.00,026.8,025.6,000.0,035.2,028.1,8.2,0000.0,0014.61,0005.26,0004.24
2023-11-16 06:54:00,SystemResetWarning,0825.8,5.00,000.00,026.8,025.6,000.0,035.2,028.1,8.2,0000.0,0014.74,0005.33,0004.31
2023-11-16 06:55:00,SystemResetWarning,0825.8,5.00,000.00,026.8,025.6,000.0,035.2,028.2,8.1,0000.0,0015.24,0005.35,0004.33
2023-11-16 06:56:00,SystemResetWarning,0825.8,5.01,000.00,026.8,025.6,000.0,035.2,028.1,8.1,0000.0,0015.81,0005.36,0004.33
2023-11-16 06:57:00,SystemResetWarning,0825.8,5.00,000.00,026.7,025.6,000.0,035.2,028.1,8.1,0000.0,0016.13,0005.34,0004.33
2023-11-16 06:58:00,SystemResetWarning,0825.8,5.00,000.00,026.7,025.6,000.0,035.2,028.1,7.8,0000.0,0016.11,0005.26,0004.25
2023-11-16 06:59:00,SystemResetWarning,0825.7,5.00,000.00,026.7,025.6,000.0,035.2,028.1,7.8,0000.0,0015.39,0005.04,0004.07
